[[{"header":{"parameterUnit":"m.s-1","parameterCategory":1,"la1":30.2991,"la2":30.254,"lo1":-89.0895,"lo2":-89.0444,"dy":0.0017,"dx":0.0017,"nx":28,"ny":28,"refTime":"2024-04-04T03:00:00:Z","depth":0,"parameterNumber":2,"parameterNumberName":"U-component_of_WINDS"},"data":[0,0,0,0,0,0,0,0,0,0,0,0,0,0,0,0,0,0,0,0,0,0,0,0,0,0,0,0,0,0,0,0,0,0,0,0,0,0,0,0,0,0,0,0,0,0,0,0,0,0,0,0,0,0,0,0,0,0,3.0512,3.0513,0,3.0621,3.0622,3.0623,3.0577,3.0575,3.0572,3.0569,3.0681,3.0687,3.0692,0,0,0,0,0,0,0,0,0,0,0,0,0,3.0264,3.0269,3.0512,3.0513,3.0515,3.0621,3.0622,3.0624,3.0578,3.0574,3.0571,3.0568,3.068,3.0686,3.0693,0,0,0,0,0,0,0,0,0,0,0,0,0,3.0373,3.0271,3.0512,3.0504,3.0505,3.062,3.0622,3.0624,3.0578,3.0574,3.057,3.0567,3.0678,3.0685,3.0694,3.0823,0,0,3.0718,3.0722,0,0,0,0,0,0,0,0,3.0366,3.0382,3.0504,3.0505,3.0506,3.0581,3.0576,3.0691,3.0579,3.055,3.0569,3.0565,3.0651,3.0661,3.0691,3.0828,3.0833,3.0719,3.0724,3.0728,3.073,0,0,0,0,0,0,0,3.0359,3.0377,3.0555,3.0506,3.0507,3.0496,3.0507,3.0598,3.0622,3.0553,3.055,3.0563,3.0651,3.0683,3.0693,3.0835,3.0719,3.0726,3.0731,3.0734,3.1084,3.1088,0,0,0,0,0,0,3.0351,3.0371,3.0552,3.0558,3.0425,3.0504,3.0516,3.0561,3.0621,3.0626,3.0566,3.056,3.0671,3.0683,3.0697,3.0852,3.0728,3.0735,3.074,3.108,3.1085,3.109,0,0,0,0,0,0,3.0346,3.0368,3.0547,3.0464,3.0486,3.0512,3.0563,3.0565,3.0597,3.0631,3.0635,3.0594,3.0668,3.0685,3.0792,3.0855,3.0739,3.0746,3.1075,3.1081,3.1088,3.1164,0,0,0,0,0,0,3.0339,3.0366,3.0416,3.0465,3.049,3.0641,3.0567,3.057,3.0611,3.0605,3.0658,3.0663,3.0666,3.078,3.08,3.0865,3.0753,3.1069,3.1078,3.1085,3.1156,3.1173,3.1187,0,0,0,0,0,3.0331,3.0433,3.0418,3.044,3.0552,3.0644,3.0659,3.066,3.0616,3.0666,3.0688,3.0662,3.0845,3.0791,3.0813,3.0881,3.1065,3.1075,3.1085,3.1149,3.117,3.1187,0,0,0,0,0,0,3.039,3.0439,3.0424,3.0545,3.0591,3.0636,3.0699,3.0681,3.0741,3.0732,3.0731,3.0744,3.0854,3.0878,3.0817,3.101,3.0949,3.0963,3.099,3.101,3.1025,3.1016,3.0759,0,0,0,0,0,3.0417,3.0488,3.0527,3.063,3.0654,3.0673,3.0713,3.071,3.0758,3.0777,3.0806,3.0854,3.0922,3.0967,3.1032,3.116,3.1171,3.1217,3.1233,3.1245,3.1258,3.1328,3.1349,3.1122,3.1122,3.1122,0,0,3.0474,3.051,3.0554,3.0643,3.0678,3.0752,3.069,3.0769,3.0824,3.0789,3.0892,3.0915,3.0968,3.1086,3.1139,3.111,3.1323,3.1258,3.1267,3.1274,3.134,3.1362,3.1381,3.1129,3.1128,3.1127,0,0,3.0616,3.065,3.0739,3.0776,3.083,3.0842,3.0864,3.0912,3.0927,3.103,3.1005,3.107,3.1188,3.1226,3.1261,3.1418,3.1396,3.1439,3.1519,3.1587,3.1605,3.1621,3.1677,3.1697,3.1452,3.1452,3.1452,0,3.068,3.0789,3.0788,3.087,3.091,3.0882,3.0973,3.1009,3.1082,3.111,3.1075,3.1223,3.1256,3.1383,3.1421,3.1451,3.1476,3.1433,3.1603,3.1619,3.1633,3.1687,3.1708,3.1457,3.1457,3.1456,3.1456,0,3.0865,3.0941,3.1007,3.1078,3.1126,3.1212,3.1225,3.1273,3.1266,3.1282,3.1387,3.1426,3.1499,3.1529,3.1523,3.1655,3.1635,3.1602,3.154,3.166,3.171,3.1731,3.1464,3.1462,3.1461,3.146,0,0,3.1047,3.1116,3.1141,3.1173,3.123,3.1289,3.1375,3.1445,3.1487,3.1538,3.161,3.171,3.168,3.172,3.1718,3.1778,3.19,3.1738,3.1739,3.1767,3.2049,3.2073,3.2097,3.1886,3.189,3.1893,3.2044,0,3.1192,3.1342,3.1344,3.1481,3.1552,3.1526,3.16,3.1644,3.1661,3.1724,3.1742,3.1814,3.1769,3.1793,3.1851,3.1873,3.1957,3.1862,3.1953,3.1956,3.194,3.2123,3.2149,3.229,3.2064,3.2067,3.207,0,3.1382,3.144,3.1584,3.1632,3.1662,3.1729,3.1794,3.1854,3.1903,3.1911,3.1956,3.1946,3.2033,3.1969,3.2089,3.2025,3.2062,3.2079,3.2084,3.2093,3.202,3.2137,3.2335,3.2357,3.2101,3.2098,3.2096,0,3.1501,3.1614,3.1715,3.1743,3.1802,3.185,3.1876,3.1921,3.1964,3.2021,3.2049,3.2115,3.2152,3.2204,3.2212,3.2164,3.2333,3.2269,3.2342,3.2342,3.2379,3.2377,3.2587,3.2403,3.2403,3.2402,3.2402,0,3.1664,3.1753,3.1769,3.1832,3.1931,3.1933,3.2031,3.2054,3.2095,3.2161,3.2143,3.2206,3.2212,3.2277,3.2284,3.2383,3.2399,3.2409,3.2409,3.241,3.2409,3.2435,3.2425,3.2408,3.2407,3.2406,3.2405,0,3.1813,3.1827,3.1936,3.1982,3.1996,3.2067,3.2107,3.2167,3.2182,3.2267,3.2286,3.2311,3.2386,3.2399,3.2488,3.2492,3.2611,3.2601,3.2594,3.2593,3.2666,3.2659,3.2899,3.2931,3.2727,3.2729,3.273,0,3.1916,3.1984,3.2038,3.2081,3.211,3.218,3.2223,3.2227,3.2273,3.2335,3.2387,3.2461,3.252,3.2641,3.2667,3.2735,3.2727,3.2807,3.2737,3.2736,3.2729,3.2725,3.2731,3.282,3.2823,3.2824,3.2826,0,3.2097,3.2101,3.2164,3.223,3.2282,3.2335,3.2384,3.242,3.2431,3.2484,3.2561,3.2606,3.2697,3.277,3.2838,3.2865,3.2848,3.2848,3.2868,3.287,3.2863,3.2868,3.2631,3.2842,3.284,3.2839,3.2838,3.2838,3.2227,3.2286,3.2333,3.2404,3.2442,3.2489,3.2547,3.257,3.2634,3.2708,3.2706,3.2791,3.2839,3.2928,3.296,3.3026,3.3,3.303,3.3038,3.3045,3.3052,3.2852,3.3038,3.3038,3.3037,3.3037,3.3037,0,3.2407,3.2436,3.2502,3.2571,3.2627,3.2605,3.2659,3.2707,3.2782,3.2828,3.2886,3.2975,3.3046,3.3077,3.3147,3.3194,3.3188,3.3213,3.3209,3.3216,3.3071,3.3046,3.3217,3.3217,3.3217,3.3217,3.3217,3.3216,3.2508,3.2607,3.2617,3.2735,3.2764,3.2846,3.2879,3.2922,3.2958,3.3058,3.3117,3.3137,3.3177,3.325,3.3314,3.3322,3.3348,3.3377,3.3381,3.3244,3.3226,3.3209,3.3186,3.3383,3.3383,3.352,3.3522,3.3523]},{"header":{"parameterUnit":"m.s-1","parameterCategory":1,"la1":30.2991,"la2":30.254,"lo1":-89.0895,"lo2":-89.0444,"dy":0.0017,"dx":0.0017,"nx":28,"ny":28,"refTime":"2024-04-04T03:00:00:Z","depth":0,"parameterNumber":3,"parameterNumberName":"V-component_of_WINDS"},"data":[0,0,0,0,0,0,0,0,0,0,0,0,0,0,0,0,0,0,0,0,0,0,0,0,0,0,0,0,0,0,0,0,0,0,0,0,0,0,0,0,0,0,0,0,0,0,0,0,0,0,0,0,0,0,0,0,0,0,-0.1423,-0.1424,0,-0.1492,-0.1493,-0.1494,-0.1548,-0.1549,-0.1549,-0.155,-0.1621,-0.1622,-0.1624,0,0,0,0,0,0,0,0,0,0,0,0,0,-0.1339,-0.1341,-0.1423,-0.1424,-0.1425,-0.1492,-0.1493,-0.1494,-0.1548,-0.1549,-0.1549,-0.155,-0.162,-0.1622,-0.1624,0,0,0,0,0,0,0,0,0,0,0,0,0,-0.1389,-0.1341,-0.1423,-0.146,-0.1464,-0.1492,-0.1493,-0.1494,-0.1548,-0.1549,-0.1549,-0.155,-0.162,-0.1622,-0.1624,-0.1621,0,0,-0.163,-0.1631,0,0,0,0,0,0,0,0,-0.1386,-0.1392,-0.1454,-0.1457,-0.1462,-0.1512,-0.149,-0.1537,-0.1548,-0.1516,-0.155,-0.155,-0.1584,-0.1589,-0.16,-0.1624,-0.1628,-0.1631,-0.1632,-0.1633,-0.1633,0,0,0,0,0,0,0,-0.1382,-0.1389,-0.1451,-0.1454,-0.146,-0.1473,-0.1481,-0.1499,-0.1545,-0.1519,-0.1523,-0.153,-0.1587,-0.1598,-0.1603,-0.1629,-0.1631,-0.1632,-0.1634,-0.1635,-0.1655,-0.1654,0,0,0,0,0,0,-0.1373,-0.1386,-0.1448,-0.1453,-0.1425,-0.1474,-0.1483,-0.1495,-0.1545,-0.1553,-0.153,-0.1533,-0.1594,-0.16,-0.1605,-0.1605,-0.1633,-0.1635,-0.1636,-0.1655,-0.1654,-0.1654,0,0,0,0,0,0,-0.1371,-0.1378,-0.1446,-0.142,-0.143,-0.1475,-0.1488,-0.1496,-0.1508,-0.1553,-0.1561,-0.1533,-0.1595,-0.1602,-0.1617,-0.1609,-0.1636,-0.1638,-0.1656,-0.1655,-0.1654,-0.1605,0,0,0,0,0,0,-0.1368,-0.1377,-0.1376,-0.142,-0.1431,-0.1455,-0.1488,-0.1497,-0.1511,-0.1516,-0.1558,-0.1566,-0.1596,-0.1613,-0.1619,-0.1612,-0.1639,-0.1657,-0.1656,-0.1654,-0.1608,-0.1603,-0.1598,0,0,0,0,0,-0.1365,-0.136,-0.1376,-0.1383,-0.1431,-0.1455,-0.1461,-0.1496,-0.1511,-0.151,-0.1539,-0.1565,-0.1609,-0.1614,-0.1621,-0.1615,-0.1658,-0.1656,-0.1655,-0.161,-0.1604,-0.1598,0,0,0,0,0,0,-0.1314,-0.1366,-0.1384,-0.1393,-0.1419,-0.1464,-0.1464,-0.1488,-0.1511,-0.1514,-0.1557,-0.1566,-0.1576,-0.1597,-0.1602,-0.1615,-0.1637,-0.1636,-0.1601,-0.1595,-0.159,-0.1585,-0.1641,0,0,0,0,0,-0.1303,-0.1318,-0.1363,-0.1366,-0.1379,-0.1419,-0.1431,-0.1455,-0.1484,-0.1496,-0.1526,-0.1553,-0.1573,-0.1585,-0.1606,-0.1612,-0.1622,-0.1611,-0.1606,-0.1602,-0.1601,-0.1606,-0.1601,-0.1648,-0.1648,-0.1648,0,0,-0.1282,-0.1312,-0.1319,-0.1357,-0.138,-0.1395,-0.1428,-0.1442,-0.1454,-0.1498,-0.1513,-0.1536,-0.157,-0.158,-0.1586,-0.1598,-0.159,-0.16,-0.1596,-0.1597,-0.1603,-0.1599,-0.1595,-0.1647,-0.1647,-0.1648,0,0,-0.125,-0.1275,-0.128,-0.1303,-0.1337,-0.1365,-0.1366,-0.1408,-0.1424,-0.1441,-0.1474,-0.1489,-0.1523,-0.1545,-0.1561,-0.1539,-0.1564,-0.1545,-0.152,-0.1524,-0.152,-0.1517,-0.1509,-0.1506,-0.1544,-0.1544,-0.1544,0,-0.1219,-0.1242,-0.128,-0.1292,-0.1308,-0.1349,-0.1355,-0.1375,-0.1415,-0.1425,-0.1438,-0.1481,-0.1507,-0.1523,-0.1517,-0.1529,-0.1532,-0.154,-0.1517,-0.1515,-0.1512,-0.1505,-0.1502,-0.1541,-0.1541,-0.1542,-0.1542,0,-0.1203,-0.1218,-0.1219,-0.1256,-0.1272,-0.1281,-0.132,-0.1332,-0.1355,-0.1381,-0.1398,-0.143,-0.1458,-0.1464,-0.1487,-0.1483,-0.149,-0.1509,-0.1532,-0.1505,-0.1499,-0.1497,-0.1538,-0.1538,-0.1539,-0.154,0,0,-0.1139,-0.1198,-0.1197,-0.1215,-0.1257,-0.127,-0.1281,-0.1309,-0.1318,-0.1344,-0.1355,-0.1383,-0.1402,-0.142,-0.1446,-0.145,-0.143,-0.1469,-0.1471,-0.1461,-0.1429,-0.1413,-0.1409,-0.1447,-0.1447,-0.1447,-0.1426,0,-0.1114,-0.1136,-0.1171,-0.1181,-0.1197,-0.1236,-0.1246,-0.1273,-0.1298,-0.1315,-0.1343,-0.1362,-0.1385,-0.1396,-0.1402,-0.1431,-0.1424,-0.1433,-0.1458,-0.1458,-0.1447,-0.1406,-0.139,-0.1368,-0.1424,-0.1423,-0.1423,0,-0.1087,-0.1111,-0.1124,-0.1165,-0.1172,-0.118,-0.1209,-0.1225,-0.1256,-0.1274,-0.1294,-0.1323,-0.1338,-0.1358,-0.1379,-0.1385,-0.1397,-0.1413,-0.1413,-0.1416,-0.1438,-0.1408,-0.1363,-0.1359,-0.142,-0.142,-0.142,0,-0.104,-0.1075,-0.1087,-0.1101,-0.115,-0.1154,-0.1175,-0.1207,-0.1222,-0.1247,-0.1257,-0.1284,-0.1298,-0.1318,-0.1354,-0.1365,-0.1371,-0.1394,-0.1386,-0.1385,-0.1385,-0.1384,-0.134,-0.1393,-0.1393,-0.1393,-0.1393,0,-0.1008,-0.1014,-0.1067,-0.1074,-0.1082,-0.1122,-0.1129,-0.1153,-0.1182,-0.1195,-0.1231,-0.1243,-0.1289,-0.1306,-0.1334,-0.1347,-0.1354,-0.1369,-0.1376,-0.1365,-0.1363,-0.1373,-0.1376,-0.1393,-0.1393,-0.1393,-0.1393,0,-0.0955,-0.0991,-0.1007,-0.1052,-0.1063,-0.1067,-0.1105,-0.1114,-0.1142,-0.1158,-0.1164,-0.1207,-0.1229,-0.1267,-0.13,-0.1319,-0.1326,-0.1339,-0.1315,-0.132,-0.1309,-0.131,-0.127,-0.1267,-0.1322,-0.1321,-0.1321,0,-0.0932,-0.0938,-0.0983,-0.0994,-0.1013,-0.1031,-0.1046,-0.1086,-0.1101,-0.1138,-0.1142,-0.1167,-0.1189,-0.1223,-0.1258,-0.1283,-0.1297,-0.1281,-0.1301,-0.129,-0.1296,-0.1295,-0.1296,-0.1276,-0.1275,-0.1275,-0.1274,0,-0.0887,-0.0905,-0.0925,-0.0952,-0.0969,-0.0992,-0.1017,-0.1024,-0.107,-0.1084,-0.1107,-0.1124,-0.1158,-0.1183,-0.1214,-0.1236,-0.1262,-0.1268,-0.1267,-0.1256,-0.1242,-0.1249,-0.1303,-0.1268,-0.1269,-0.1269,-0.127,-0.127,-0.0849,-0.0856,-0.0889,-0.091,-0.0933,-0.0956,-0.0966,-0.0995,-0.1015,-0.1045,-0.1068,-0.109,-0.1122,-0.1167,-0.1187,-0.1205,-0.1217,-0.1216,-0.1216,-0.1215,-0.1211,-0.124,-0.1211,-0.1211,-0.1211,-0.1211,-0.1211,0,-0.0806,-0.0829,-0.0848,-0.0882,-0.0899,-0.0923,-0.0952,-0.0965,-0.0983,-0.1011,-0.1032,-0.1059,-0.1083,-0.112,-0.1147,-0.1155,-0.1168,-0.1161,-0.116,-0.1165,-0.1198,-0.1196,-0.1149,-0.1149,-0.1149,-0.1149,-0.115,-0.115,-0.0785,-0.0798,-0.0819,-0.0844,-0.0868,-0.0889,-0.0903,-0.0925,-0.0947,-0.0975,-0.0996,-0.1019,-0.1051,-0.1081,-0.1105,-0.1115,-0.1124,-0.1112,-0.1126,-0.1157,-0.1162,-0.1168,-0.1166,-0.1114,-0.1114,-0.1091,-0.1091,-0.1091]}]]